DAL1334 KATL-KFLL

Flight info

Callsign DAL1334
Flight time N/A
Altitude 37000
Route SMLTZ3 WALET ZPLEN TEEKY3
Aircraft B738/M-SDE2E3FGHIRWXY/LB1

Departure

Time 2026-05-03 23:40
Airport Hartsfield Jackson Atlanta International Airport (KATL)

Arrival

Time N/A
Airport Fort Lauderdale Hollywood International Airport (KFLL)
Time Latitude Longitude Altitude Speed Heading
2026-05-03 23:00 33.63851 -84.42884 1034 ft 0 kts 287°
2026-05-03 23:25 33.63849 -84.42875 1034 ft 4 kts 287°
2026-05-03 23:25 33.63842 -84.42844 1034 ft 4 kts 271°
2026-05-03 23:25 33.63847 -84.42817 1034 ft 4 kts 219°
2026-05-03 23:26 33.63861 -84.42809 1034 ft 0 kts 180°
2026-05-03 23:36 33.63860 -84.42809 1034 ft 1 kts 180°
2026-05-03 23:36 33.63833 -84.42809 1034 ft 10 kts 180°
2026-05-03 23:37 33.63732 -84.42810 1034 ft 14 kts 180°
2026-05-03 23:37 33.63703 -84.42809 1034 ft 8 kts 172°
2026-05-03 23:37 33.63657 -84.42689 1035 ft 24 kts 94°
2026-05-03 23:37 33.63656 -84.42463 1035 ft 31 kts 87°
2026-05-03 23:38 33.63657 -84.42209 1035 ft 29 kts 92°
2026-05-03 23:38 33.63655 -84.41952 1034 ft 33 kts 88°
2026-05-03 23:38 33.63657 -84.41670 1034 ft 35 kts 90°
2026-05-03 23:38 33.63657 -84.41376 1034 ft 36 kts 90°
2026-05-03 23:39 33.63656 -84.41150 1034 ft 15 kts 89°
2026-05-03 23:39 33.63613 -84.41047 1034 ft 17 kts 175°
2026-05-03 23:39 33.63494 -84.41061 1034 ft 18 kts 215°
2026-05-03 23:39 33.63471 -84.41206 1033 ft 19 kts 269°
2026-05-03 23:40 33.63470 -84.41583 1033 ft 85 kts 269°
2026-05-03 23:40 33.63469 -84.42608 1065 ft 155 kts 270°
2026-05-03 23:40 33.63465 -84.44076 1517 ft 192 kts 271°
2026-05-03 23:40 33.63456 -84.45722 2486 ft 193 kts 270°
2026-05-03 23:41 33.63452 -84.47336 3451 ft 200 kts 271°
2026-05-03 23:41 33.63451 -84.49115 3714 ft 227 kts 271°
2026-05-03 23:41 33.63450 -84.52971 5183 ft 233 kts 270°
2026-05-03 23:41 33.63451 -84.55186 5547 ft 261 kts 271°
2026-05-03 23:42 33.63454 -84.62684 8442 ft 271 kts 271°
2026-05-03 23:42 33.63136 -84.64903 9198 ft 281 kts 247°
2026-05-03 23:42 33.61943 -84.66786 9780 ft 288 kts 221°
2026-05-03 23:42 33.60229 -84.68084 10023 ft 296 kts 212°
2026-05-03 23:43 33.58343 -84.69263 9989 ft 302 kts 201°
2026-05-03 23:43 33.56266 -84.69542 10010 ft 303 kts 177°
2026-05-03 23:43 33.50010 -84.68337 10010 ft 303 kts 172°
2026-05-03 23:43 33.43431 -84.67051 10000 ft 304 kts 170°
2026-05-03 23:44 33.41480 -84.66107 10005 ft 306 kts 145°
2026-05-03 23:44 33.38022 -84.62261 9995 ft 306 kts 135°
2026-05-03 23:44 33.32012 -84.55034 9991 ft 306 kts 135°
2026-05-03 23:44 33.25953 -84.47850 10004 ft 307 kts 135°
2026-05-03 23:45 33.19871 -84.40699 9991 ft 307 kts 135°
2026-05-03 23:45 33.17610 -84.38044 10022 ft 321 kts 135°
2026-05-03 23:45 33.15939 -84.36083 10045 ft 353 kts 135°
2026-05-03 23:45 33.14111 -84.33939 10027 ft 382 kts 135°
2026-05-03 23:46 33.07567 -84.26271 9928 ft 382 kts 136°
2026-05-03 23:46 33.01067 -84.18674 9976 ft 386 kts 136°
2026-05-03 23:46 32.98907 -84.16771 9991 ft 390 kts 156°
2026-05-03 23:46 32.95445 -84.15366 10016 ft 388 kts 163°
2026-05-03 23:47 32.85151 -84.11334 9991 ft 390 kts 163°
2026-05-03 23:47 32.74844 -84.07331 9987 ft 390 kts 163°
2026-05-03 23:47 32.64549 -84.03336 9996 ft 389 kts 163°
2026-05-03 23:47 32.54391 -83.99402 10008 ft 389 kts 163°
2026-05-03 23:48 32.44116 -83.95431 9995 ft 388 kts 163°
2026-05-03 23:48 32.33849 -83.91473 9990 ft 387 kts 163°
2026-05-03 23:48 32.23610 -83.87536 10002 ft 386 kts 163°
2026-05-03 23:48 32.13391 -83.83616 10007 ft 386 kts 163°
2026-05-03 23:49 32.03177 -83.79706 10001 ft 386 kts 163°
2026-05-03 23:49 31.92975 -83.75811 10002 ft 386 kts 163°
2026-05-03 23:49 31.82751 -83.71915 9998 ft 386 kts 164°
2026-05-03 23:49 31.72550 -83.68039 10004 ft 385 kts 164°
2026-05-03 23:50 31.62344 -83.64169 9999 ft 385 kts 164°
2026-05-03 23:50 31.55592 -83.61613 10005 ft 385 kts 164°
2026-05-03 23:50 31.41959 -83.56466 10007 ft 385 kts 164°
2026-05-03 23:50 31.35215 -83.53926 10006 ft 384 kts 164°
2026-05-03 23:51 31.21606 -83.48811 10056 ft 389 kts 164°
2026-05-03 23:51 31.17769 -83.47374 11000 ft 395 kts 165°
2026-05-03 23:51 31.08251 -83.43806 13973 ft 397 kts 166°
2026-05-03 23:51 30.97540 -83.39807 16488 ft 408 kts 167°
2026-05-03 23:52 30.86576 -83.35717 18933 ft 418 kts 167°
2026-05-03 23:52 30.75360 -83.31542 20970 ft 428 kts 168°
2026-05-03 23:52 30.69798 -83.29422 21927 ft 436 kts 165°
2026-05-03 23:52 30.58988 -83.23645 23636 ft 451 kts 161°
2026-05-03 23:53 30.47561 -83.17290 24974 ft 460 kts 162°
2026-05-03 23:53 30.35836 -83.11005 26233 ft 468 kts 163°
2026-05-03 23:53 30.23896 -83.04644 27392 ft 477 kts 163°
2026-05-03 23:53 30.11767 -82.98172 28547 ft 481 kts 163°
2026-05-03 23:54 29.99684 -82.91729 30283 ft 474 kts 164°
2026-05-03 23:54 29.87756 -82.85404 31618 ft 471 kts 165°
2026-05-03 23:54 29.75828 -82.79103 32884 ft 470 kts 166°
2026-05-03 23:54 29.64086 -82.72892 34391 ft 460 kts 167°
2026-05-03 23:55 29.52431 -82.66773 35328 ft 459 kts 168°
2026-05-03 23:55 29.47496 -82.64177 35852 ft 456 kts 168°
2026-05-03 23:55 29.44612 -82.62662 36121 ft 455 kts 168°
2026-05-03 23:55 29.41734 -82.61154 36350 ft 455 kts 168°
2026-05-03 23:56 29.38853 -82.59645 36586 ft 455 kts 168°
2026-05-03 23:56 29.35978 -82.58139 36845 ft 454 kts 169°
2026-05-03 23:56 29.33149 -82.56657 37014 ft 453 kts 169°
2026-05-03 23:56 29.27739 -82.53834 37073 ft 456 kts 170°
2026-05-03 23:57 29.24810 -82.52750 37070 ft 427 kts 186°
2026-05-03 23:57 29.20791 -82.52577 37088 ft 408 kts 193°
2026-05-03 23:57 28.98239 -82.52717 37059 ft 402 kts 193°
2026-05-03 23:58 28.75937 -82.52698 37086 ft 400 kts 193°
2026-05-03 23:58 28.53622 -82.52695 37086 ft 404 kts 193°
2026-05-03 23:59 28.30744 -82.52683 37068 ft 416 kts 193°
2026-05-03 23:59 28.07451 -82.52666 37022 ft 420 kts 193°
2026-05-04 00:00 27.97580 -82.51997 37057 ft 447 kts 176°
2026-05-04 00:00 27.83658 -82.46880 36948 ft 438 kts 176°
2026-05-04 00:01 27.74586 -82.43655 37055 ft 434 kts 176°
2026-05-04 00:01 27.62993 -82.39580 37071 ft 439 kts 176°
2026-05-04 00:01 27.39350 -82.31244 37080 ft 452 kts 175°
2026-05-04 00:02 27.36366 -82.30012 37038 ft 468 kts 167°
2026-05-04 00:02 27.31684 -82.27108 37042 ft 477 kts 162°
2026-05-04 00:02 27.20232 -82.19538 36280 ft 475 kts 162°
2026-05-04 00:02 27.08775 -82.12285 33655 ft 469 kts 162°
2026-05-04 00:03 27.03011 -82.08650 31953 ft 459 kts 161°
2026-05-04 00:03 27.00242 -82.06903 31486 ft 455 kts 161°
2026-05-04 00:03 26.97484 -82.05165 31375 ft 457 kts 161°
2026-05-04 00:03 26.94872 -82.03079 31198 ft 469 kts 144°
2026-05-04 00:04 26.90563 -81.97844 31069 ft 448 kts 142°
2026-05-04 00:04 26.88500 -81.95306 31057 ft 434 kts 143°
2026-05-04 00:04 26.86479 -81.92864 31052 ft 421 kts 144°
2026-05-04 00:05 26.84506 -81.90518 31051 ft 408 kts 144°
2026-05-04 00:05 26.82441 -81.88084 31050 ft 394 kts 145°
2026-05-04 00:05 26.77754 -81.82559 30951 ft 367 kts 146°
2026-05-04 00:05 26.76019 -81.80525 30981 ft 358 kts 147°
2026-05-04 00:06 26.71182 -81.74946 31184 ft 377 kts 146°
2026-05-04 00:06 26.69370 -81.72838 31018 ft 377 kts 146°
2026-05-04 00:06 26.67518 -81.70687 30225 ft 392 kts 145°
2026-05-04 00:07 26.65563 -81.68429 28900 ft 416 kts 144°
2026-05-04 00:07 26.63485 -81.66030 27460 ft 442 kts 143°
2026-05-04 00:07 26.58480 -81.59029 25523 ft 462 kts 133°
2026-05-04 00:07 26.51087 -81.47643 23932 ft 442 kts 134°
2026-05-04 00:08 26.43819 -81.36903 22155 ft 425 kts 134°
2026-05-04 00:08 26.40152 -81.31533 21264 ft 416 kts 136°
2026-05-04 00:08 26.32832 -81.21838 19544 ft 403 kts 137°
2026-05-04 00:08 26.28598 -81.16210 18582 ft 397 kts 136°
2026-05-04 00:09 26.22131 -81.07676 17042 ft 386 kts 136°
2026-05-04 00:09 26.18052 -81.02325 16119 ft 377 kts 135°
2026-05-04 00:09 26.16386 -81.00132 16063 ft 364 kts 136°
2026-05-04 00:09 26.14911 -80.97879 15956 ft 361 kts 121°
2026-05-04 00:10 26.14164 -80.95235 15908 ft 356 kts 104°
2026-05-04 00:10 26.12835 -80.86717 15311 ft 337 kts 103°
2026-05-04 00:10 26.11690 -80.79703 14522 ft 334 kts 103°
2026-05-04 00:10 26.10374 -80.71907 13662 ft 329 kts 103°
2026-05-04 00:11 26.08760 -80.62507 12577 ft 321 kts 108°
2026-05-04 00:11 26.07813 -80.60315 12240 ft 312 kts 134°
2026-05-04 00:11 26.06200 -80.58806 11916 ft 299 kts 159°
2026-05-04 00:11 26.02699 -80.57625 11320 ft 292 kts 172°
2026-05-04 00:12 25.95739 -80.55851 10122 ft 295 kts 173°
2026-05-04 00:12 25.89997 -80.54462 9551 ft 279 kts 173°
2026-05-04 00:12 25.87887 -80.54054 9202 ft 275 kts 184°
2026-05-04 00:12 25.86076 -80.54494 8887 ft 263 kts 211°
2026-05-04 00:13 25.84728 -80.55798 8566 ft 257 kts 239°
2026-05-04 00:13 25.84162 -80.57473 8303 ft 254 kts 264°
2026-05-04 00:13 25.84403 -80.59400 7987 ft 257 kts 291°
2026-05-04 00:13 25.85487 -80.60986 7650 ft 265 kts 319°
2026-05-04 00:14 25.87183 -80.61845 7287 ft 275 kts 345°
2026-05-04 00:14 25.89279 -80.62401 6900 ft 272 kts 329°
2026-05-04 00:14 25.90694 -80.63717 6617 ft 263 kts 301°
2026-05-04 00:14 25.91349 -80.65557 6347 ft 256 kts 277°
2026-05-04 00:15 25.91552 -80.67519 6063 ft 255 kts 274°
2026-05-04 00:15 25.91695 -80.69475 5795 ft 253 kts 273°
2026-05-04 00:15 25.91830 -80.71419 5556 ft 251 kts 273°
2026-05-04 00:15 25.91959 -80.73344 5310 ft 249 kts 273°
2026-05-04 00:16 25.92084 -80.75263 5072 ft 247 kts 273°
2026-05-04 00:16 25.92204 -80.77131 5011 ft 238 kts 273°
2026-05-04 00:16 25.92584 -80.78860 4987 ft 228 kts 298°
2026-05-04 00:16 25.93696 -80.80057 4996 ft 227 kts 331°
2026-05-04 00:17 25.95730 -80.80524 5014 ft 229 kts 352°
2026-05-04 00:17 26.02071 -80.81064 5018 ft 228 kts 353°
2026-05-04 00:17 26.08404 -80.81554 5000 ft 228 kts 353°
2026-05-04 00:17 26.13529 -80.81945 5005 ft 228 kts 355°
2026-05-04 00:18 26.15058 -80.81525 4997 ft 233 kts 34°
2026-05-04 00:18 26.15988 -80.80110 5006 ft 237 kts 75°
2026-05-04 00:18 26.15903 -80.78297 5025 ft 241 kts 115°
2026-05-04 00:18 26.15086 -80.76520 5029 ft 253 kts 114°
2026-05-04 00:19 26.13831 -80.72828 5015 ft 273 kts 110°
2026-05-04 00:19 26.11289 -80.64792 4975 ft 276 kts 110°
2026-05-04 00:19 26.08747 -80.56746 4981 ft 275 kts 110°
2026-05-04 00:19 26.07700 -80.53449 4984 ft 271 kts 111°
2026-05-04 00:20 26.07088 -80.51512 4983 ft 259 kts 111°
2026-05-04 00:20 26.06671 -80.49619 4979 ft 247 kts 93°
2026-05-04 00:20 26.06693 -80.47759 4993 ft 235 kts 90°
2026-05-04 00:20 26.06712 -80.45993 4980 ft 222 kts 90°
2026-05-04 00:21 26.06716 -80.44324 4975 ft 209 kts 91°
2026-05-04 00:21 26.06710 -80.40794 4958 ft 200 kts 91°